CZ-7A R/B, 64063

Orbit data source: Space-Track

CZ-7A R/B, 64063 is space debris in HEO originally from a launch on Tue, 20 May 2025 UTC launched from the Wenchang Satellite Launch Center (WSC). Debris objects in space refer to the collection of defunct objects orbiting the Earth. Examples of debris include non-operational satellites, rocket bodies, and fragments generated from explosions, collisions, or faulty payload assembly.

Loading next visibility...
Identifier
64063, 2025-106B
Orbit
HEO
Country
Flag of CNCN / PRC
Related business
Manufacturer
CALT
Mission
Spacecraft
Bus & Motor
CZ-3A STAGE 3, Unknown motor
Mass
~2,800 kg wet, ~2,800 kg dry
Launch date (UTC)
2025-05-20 (9 months ago)
Launch vehicle
Unknown
Launch site
Wenchang Satellite Launch Center (WSC)
Object type
Payload
Rocket body
Debris
Shape & HBR
Cyl + 1 Nozzle, 6.2 m
Radar Cross Section
32.704 m², Large (>1 m²)

Expand to show TLE details & history
Last TLE update: 3 days ago

TLE from 3 days ago
0 CZ-7A R/B
1 64063U 25106B   26060.81805112  .00041594  93396-7  17276-2 0  9998
2 64063  15.6109 289.8036 6836157  96.6400 338.7895  2.90315728  7928
Epoch: 2026-03-01T19:37Z
TLE epoch observation values (Epoch: 2026-03-01T19:37:59.616Z)
Latitude
-0.00001°
Longitude
-164.25861°
Altitude
5,606.493 km
Speed
6.878 km/s
True Right ascension
19h 19m 26s
True Declination
0° 00' 00"
Sunlit
Object was in daylight at epoch
Visualization orbit readout
Latitude
Unknown
Longitude
Unknown
Altitude
Unknown
Speed
Unknown
Apparent Right ascension
Unknown
Apparent Declination
Unknown
Sunlit
N/A
Visualization observer readout
Local Sidereal Time
02:20:43
Azimuth
Unknown
Elevation
Unknown
Doppler factor
Unknown
Orbital elements
Apogee altitude
28,576.1 km
Perigee altitude
190.447 km
Semi-major axis
20,761.411 km
Eccentricity
0.68362
Inclination
15.6109°
RAAN
289.8036°
Arg. of periapsis
96.64°
True anomaly
263.09738°
Mean anomaly
338.7895°
Eccentric anomaly
307.8697°
Mean motion
0.72553 °/min
Orbital period
496.19 mins
BSTAR
0.0017276
Loading maneuver chart data...
Computing Atmospheric mass density...
Loading historical data...
Loading historical data...
Loading historical data...
Loading historical data...
Loading historical data...
Loading historical data...
Loading historical data...
Other satellites on launch #106 in the year 2025 (2025-05-20 UTC)

Documentation

Showing up to 5 results
|